📊 Raw Sensor Data
Showing records 50201 to 50225 of 85,131 total
| ID | Distance (ft) | Battery V | Battery A | Int Temp (°F) | Int Humid (%) | Ext Temp (°F) | Solar V | RSSI | SNR | Time Stamp |
|---|---|---|---|---|---|---|---|---|---|---|
| 34943 | 25.4 | 3.94 | -8 | 41 | 40 | 41 | 4.10 | -80 | 8 | 03/14/2025 07:30 AM |
| 34942 | 15.1 | 3.95 | -5 | 41 | 40 | 42 | 0.30 | -84 | 7 | 03/14/2025 07:15 AM |
| 34941 | 15.1 | 4.00 | -6 | 41 | 40 | 42 | 0.00 | -81 | 8 | 03/14/2025 07:00 AM |
| 34940 | 15.0 | 3.95 | -5 | 41 | 40 | 42 | 0.00 | -84 | 8 | 03/14/2025 06:45 AM |
| 34939 | 15.1 | 4.00 | -5 | 41 | 40 | 42 | 0.00 | -85 | 8 | 03/14/2025 06:30 AM |
| 34938 | 15.1 | 3.95 | -5 | 42 | 39 | 42 | 0.10 | -82 | 8 | 03/14/2025 06:15 AM |
| 34937 | 17.4 | 3.95 | -5 | 42 | 39 | 43 | 0.00 | -87 | 8 | 03/14/2025 06:00 AM |
| 34936 | 15.0 | 4.01 | -5 | 42 | 39 | 43 | 0.00 | -84 | 8 | 03/14/2025 05:45 AM |
| 34935 | 15.0 | 3.95 | -5 | 42 | 39 | 43 | 0.00 | -84 | 6 | 03/14/2025 05:30 AM |
| 34934 | 15.1 | 3.96 | -5 | 42 | 39 | 43 | 0.00 | -84 | 8 | 03/14/2025 05:15 AM |
| 34933 | 15.1 | 4.01 | -5 | 42 | 39 | 43 | 0.10 | -79 | 8 | 03/14/2025 05:00 AM |
| 34932 | 15.1 | 3.96 | -5 | 42 | 39 | 43 | 0.10 | -79 | 7 | 03/14/2025 04:45 AM |
| 34931 | 15.1 | 3.96 | -5 | 42 | 39 | 43 | 0.10 | -78 | 8 | 03/14/2025 04:30 AM |
| 34930 | 15.0 | 3.96 | -5 | 42 | 40 | 43 | 0.00 | -78 | 8 | 03/14/2025 04:00 AM |
| 34929 | -- | 3.96 | -12 | 43 | 39 | 44 | 0.00 | -79 | 8 | 03/14/2025 03:45 AM |
| 34928 | 15.1 | 4.01 | -5 | 43 | 39 | 44 | 0.10 | -78 | 8 | 03/14/2025 03:30 AM |
| 34927 | 15.1 | 3.96 | -5 | 43 | 39 | 44 | 0.10 | -77 | 8 | 03/14/2025 03:15 AM |
| 34926 | 15.1 | 3.96 | -5 | 43 | 39 | 44 | 0.00 | -74 | 8 | 03/14/2025 03:00 AM |
| 34925 | 15.1 | 3.96 | -5 | 43 | 39 | 44 | 0.10 | -77 | 8 | 03/14/2025 02:45 AM |
| 34924 | 15.1 | 4.02 | -5 | 44 | 39 | 44 | 0.00 | -77 | 8 | 03/14/2025 02:30 AM |
| 34923 | 15.1 | 3.96 | -5 | 44 | 39 | 45 | 0.00 | -75 | 8 | 03/14/2025 02:15 AM |
| 34922 | 15.1 | 4.02 | -5 | 44 | 39 | 45 | 0.00 | -75 | 8 | 03/14/2025 02:00 AM |
| 34921 | 15.1 | 3.96 | -5 | 44 | 39 | 44 | 0.10 | -76 | 9 | 03/14/2025 01:45 AM |
| 34920 | 15.1 | 3.97 | -5 | 43 | 39 | 44 | 0.00 | -76 | 9 | 03/14/2025 01:30 AM |
| 34919 | 15.1 | 4.02 | -5 | 43 | 39 | 44 | 0.00 | -76 | 9 | 03/14/2025 01:15 AM |